Wind_Speed
31 31 28 30 33 32 30 33 34 32 35 37 41 44 44 45 45 43 42 41 40 40 40 39 42 42 39 40 42 40 36 33 24 19 32 39 36 45 41 40 36 34 33
7 19 27 28 29 31 34 35 35 38 38 33 36 38 40 43 42 42 42 41 41 39 42 39 41 40 41 41 37 39 37 38 34 30 31 38 37 46 46 43 37 35 34
15 12 13 9 4 13 27 31 27 32 35 34 36 37 38 40 40 44 45 44 45 44 43 42 42 41 39 38 38 38 38 36 39 34 24 32 29 35 37 39 36 35 34
28 25 23 19 17 14 12 8 2 10 20 27 34 35 37 40 42 44 43 43 42 42 44 44 43 43 43 42 41 42 42 38 37 36 23 27 29 36 40 35 32 35 34
29 32 27 26 25 24 23 21 18 14 14 8 8 13 23 34 37 38 44 45 43 41 44 46 46 46 48 48 43 41 41 39 35 30 22 18 24 30 37 35 30 35 35
28 29 25 31 32 31 29 26 24 24 22 20 20 19 15 16 16 10 18 24 24 27 29 31 37 41 42 46 51 54 47 43 34 28 24 26 30 35 35 40 34 23 9
27 26 26 27 28 28 26 27 27 27 24 24 24 23 23 21 24 20 20 18 19 20 23 26 30 33 37 41 44 48 50 41 41 37 31 30 28 37 39 36 30 23 15
24 24 29 25 25 26 24 25 23 24 25 25 24 22 23 23 23 26 23 23 20 19 18 21 26 30 29 30 32 32 32 33 39 39 38 34 38 44 52 47 39 28 20
29 30 28 27 26 26 28 27 26 26 24 24 23 24 24 24 23 25 24 25 26 27 22 17 20 22 22 21 22 23 24 27 27 35 40 37 35 40 46 41 35 29 9
28 25 24 24 24 25 25 26 25 25 25 25 25 24 23 24 22 23 24 25 25 27 26 20 18 19 18 16 21 22 22 24 23 25 24 26 33 41 48 47 44 29 19
21 21 22 24 22 23 21 25 23 23 24 24 24 25 24 25 24 24 24 23 25 27 26 23 19 17 17 16 16 21 21 20 21 23 24 27 32 36 38 36 36 33 29
22 23 24 25 24 22 21 23 24 22 21 22 22 21 24 28 27 27 28 25 24 24 23 21 20 18 15 13 13 21 16 15 21 24 24 23 28 28 27 26 28 27 28
23 25 26 24 24 24 21 21 21 22 21 21 22 22 26 28 29 33 35 28 24 23 18 18 19 19 14 10 10 14 15 17 22 20 19 23 25 27 27 26 23 22 20
24 25 25 25 25 25 26 23 21 22 22 22 23 24 24 26 30 35 36 28 23 21 17 17 16 12 7 6 4 10 18 21 25 24 24 26 28 30 30 30 28 24 24
23 23 24 22 19 19 19 18 19 18 20 20 21 20 22 25 32 29 30 27 21 18 17 16 11 5 3 8 11 13 12 16 20 22 27 27 28 30 30 28 28 27 19
22 21 22 22 18 18 16 16 16 14 18 22 21 22 21 21 25 24 22 22 20 17 17 14 9 4 1 6 10 10 13 17 19 23 25 28 27 28 27 25 26 21 25
22 21 17 18 15 17 19 20 21 22 16 24 26 26 25 25 27 26 20 19 22 22 24 21 15 6 2 4 7 9 9 12 15 17 20 20 21 22 25 23 21 22 21
17 19 17 15 15 14 16 16 15 16 19 29 27 30 29 28 29 31 30 26 31 30 27 24 22 17 7 1 3 5 7 9 12 14 17 21 23 25 24 22 23 23 24
14 15 15 13 14 14 15 15 18 19 20 24 28 29 29 27 29 31 33 35 30 29 27 25 22 19 15 8 8 11 12 13 15 18 19 21 23 24 23 24 25 25 26
8 10 11 10 11 11 12 12 13 15 16 18 21 23 24 26 30 30 30 29 29 27 25 23 20 17 14 10 9 11 15 15 16 18 20 21 22 24 24 24 24 24 21
5 6 7 7 8 10 9 7 7 9 11 12 14 15 15 19 21 22 23 24 23 23 23 22 20 18 14 11 10 12 15 16 16 18 19 20 20 23 23 22 22 21 21
4 5 5 6 6 6 7 7 7 7 9 10 11 12 12 15 17 19 19 19 18 17 17 18 19 18 16 14 13 13 16 17 17 18 19 19 20 21 21 21 20 20 21
2 3 4 4 5 4 4 5 6 6 7 7 8 9 10 13 14 15 16 15 16 16 16 17 18 18 16 15 14 14 15 15 15 15 17 19 19 19 19 20 21 20 18
2 2 2 2 2 2 3 4 4 4 4 4 5 6 8 10 11 13 14 14 13 15 17 18 19 18 17 16 15 15 15 14 13 13 14 17 19 18 18 18 17 17 18
1 1 1 1 1 1 2 3 3 2 2 2 2 4 5 6 9 10 10 11 12 12 15 16 16 16 16 16 15 14 14 13 14 14 13 14 15 15 15 15 16 16 14
2 2 3 4 4 4 4 4 4 3 3 2 1 1 2 4 6 7 8 8 9 10 10 12 13 13 12 12 12 12 12 12 12 12 10 11 12 13 12 12 12 11 11
Wind_Direction
206 203 206 212 215 218 220 219 218 222 224 225 231 230 228 228 227 227 230 231 229 232 232 232 236 239 233 236 233 231 228 227 239 237 229 224 215 214 214 214 206 212 213
171 206 207 214 213 215 219 226 229 232 230 229 233 229 228 229 230 228 230 231 232 231 235 234 235 239 238 237 234 232 229 227 228 239 223 215 214 214 212 202 206 206 214
78 106 91 93 97 227 226 234 233 238 236 242 244 236 229 230 230 234 235 234 232 232 234 232 233 234 235 234 233 234 232 230 229 233 216 209 205 202 200 201 202 205 212
64 65 68 61 59 51 47 50 195 238 239 246 248 247 246 241 235 236 235 236 237 237 236 236 235 234 234 234 231 232 234 230 228 226 213 197 192 189 194 188 189 203 209
55 60 55 62 60 57 49 41 38 41 25 1 306 261 257 249 244 236 239 240 241 241 241 241 242 241 241 238 232 231 231 230 230 224 213 186 184 175 185 185 182 195 209
45 49 48 54 53 53 49 42 33 36 33 23 22 12 0 345 331 323 252 246 252 253 253 250 248 246 246 247 245 244 239 229 228 212 200 200 195 194 184 176 172 169 188
40 39 44 48 48 49 45 43 29 31 27 20 19 7 3 357 351 347 339 313 291 281 281 279 276 271 267 262 257 249 246 241 234 219 205 205 193 191 184 176 177 174 174
37 35 41 41 44 44 42 39 29 30 21 18 11 7 356 353 350 339 339 329 321 305 297 295 291 283 278 274 272 268 264 261 255 233 224 215 208 197 191 184 178 173 177
34 36 35 37 38 39 38 34 31 28 26 20 12 7 360 355 355 349 340 328 327 314 311 306 300 291 290 285 274 268 267 262 253 238 232 225 211 202 185 175 167 164 140
36 36 40 44 45 43 43 39 37 37 30 26 20 17 12 2 1 355 354 340 325 319 316 319 312 303 294 288 270 260 252 248 239 228 222 218 213 194 190 192 181 163 148
41 45 47 50 48 49 41 44 33 31 30 23 18 15 9 5 3 1 355 346 340 327 320 322 326 317 304 284 265 256 251 247 223 208 190 185 180 177 179 184 186 181 173
45 47 49 50 48 44 39 37 35 33 29 21 16 6 6 6 3 355 348 344 342 334 321 322 319 315 310 292 265 244 244 230 197 175 156 151 155 162 168 167 173 183 195
48 48 50 53 51 49 39 33 30 25 23 16 13 6 358 357 355 355 354 350 347 341 329 324 322 317 304 271 244 233 211 197 174 156 145 143 150 161 158 156 162 173 178
49 47 46 46 48 45 44 37 33 27 20 15 9 3 356 354 355 352 352 356 354 351 348 334 331 328 322 279 193 195 194 187 178 162 150 158 158 156 155 157 150 151 144
50 45 44 46 44 37 40 41 39 42 35 25 17 6 355 355 350 353 5 9 6 6 355 348 346 345 117 147 157 175 178 171 158 155 152 155 152 156 159 164 163 157 153
44 39 40 38 32 28 29 30 43 39 35 32 28 24 17 6 1 5 12 9 9 3 11 2 346 342 135 154 156 157 170 168 168 165 162 161 157 159 157 161 158 157 143
43 37 41 36 34 32 28 23 12 27 26 33 31 24 24 18 16 17 19 31 32 33 31 14 13 359 265 199 184 176 164 171 180 171 162 160 154 146 143 144 145 147 137
44 38 43 37 32 30 29 31 28 22 9 16 32 28 29 29 29 28 30 33 34 36 33 24 19 23 36 87 166 158 153 162 165 158 156 151 148 147 141 139 144 138 138
40 37 35 37 36 33 31 29 28 27 20 20 21 26 24 34 38 39 38 39 32 30 29 28 27 28 30 56 106 130 139 143 153 154 156 156 152 146 136 141 144 147 145
62 51 36 42 34 36 33 34 32 29 29 28 28 19 17 25 33 36 38 38 35 34 33 33 34 38 42 50 87 112 120 121 125 128 131 135 139 143 136 141 145 142 144
75 63 49 48 49 36 43 42 41 36 38 41 42 36 29 35 38 37 38 38 35 35 36 39 41 46 55 67 81 105 113 118 124 126 130 130 136 137 139 141 141 140 140
79 63 59 53 65 55 56 53 53 51 43 43 42 44 44 47 47 44 39 40 41 43 46 48 50 53 54 67 87 98 106 110 115 119 119 124 130 131 133 132 133 137 143
122 109 97 84 76 77 61 56 46 41 37 40 43 47 51 58 60 59 57 49 51 52 55 58 60 63 67 71 79 91 95 97 107 121 125 124 122 125 133 137 138 136 137
149 97 88 91 87 68 54 50 44 34 27 28 42 54 60 66 70 72 72 67 59 60 62 62 65 67 70 74 80 86 89 94 100 107 116 122 124 129 131 130 129 134 138
220 300 292 300 329 351 355 346 350 347 345 4 39 65 79 86 90 90 80 76 74 70 72 74 71 70 75 76 77 80 85 93 100 106 113 119 121 124 128 134 140 142 139
258 276 289 296 297 301 307 303 297 294 293 303 326 169 132 112 105 105 99 93 84 78 75 76 76 74 73 78 85 88 88 87 94 100 105 113 124 128 133 134 134 138 149
Height
750 754 760 764 768 772 775 776 777 780 782 785 788 789 792 795 798 801 803 804 804 804 806 807 808 810 811 811 811 813 814 815 814 814 816 817 818 822 828 835 832 845 849
749 754 757 760 763 766 769 771 772 773 775 773 780 781 784 786 788 790 792 793 794 793 794 797 797 800 800 802 801 802 803 803 805 805 805 807 809 810 814 820 830 832 844
749 752 753 755 758 761 763 765 766 764 769 771 773 773 774 777 779 779 780 779 780 781 782 784 784 787 788 789 791 791 792 792 793 793 793 797 800 806 810 817 820 826 835
755 755 756 757 758 759 759 760 760 762 764 766 766 766 767 768 768 769 769 770 769 768 768 770 771 773 774 776 777 778 780 780 780 780 782 783 787 790 800 808 814 819 826
763 763 764 763 763 761 761 759 761 760 761 761 762 761 762 761 761 759 759 759 759 759 758 758 758 760 761 762 763 764 766 766 767 768 770 772 778 783 786 793 800 810 818
770 768 771 765 763 762 761 764 766 762 762 764 762 761 759 760 756 755 752 751 751 751 751 751 751 751 750 752 751 751 751 752 756 758 761 764 766 770 776 778 787 801 813
778 777 773 770 768 766 767 765 769 765 764 765 760 762 760 759 757 753 752 749 746 745 745 745 744 744 744 743 742 740 741 742 743 745 750 752 758 762 767 774 780 787 797
785 781 774 775 773 771 771 769 770 765 765 764 765 763 762 761 755 756 750 751 745 743 739 738 738 737 734 735 736 735 732 732 736 738 741 744 747 752 757 760 772 784 795
788 783 781 778 777 775 773 772 770 768 767 766 765 762 761 758 755 753 749 749 741 743 738 734 733 732 731 730 730 728 725 726 727 733 733 738 743 748 755 760 769 779 793
792 792 788 785 783 781 779 777 775 773 772 768 767 766 763 761 755 754 750 746 740 738 735 730 730 730 726 723 726 723 721 721 723 727 732 736 740 745 748 753 761 770 783
802 799 794 789 788 785 785 781 780 776 774 772 771 768 767 764 758 755 753 747 743 736 731 729 726 726 723 721 721 720 719 721 724 725 728 732 738 743 747 752 759 766 778
805 801 796 792 791 790 788 784 783 780 777 776 771 772 766 760 756 752 749 745 741 735 730 727 726 723 718 717 718 717 720 720 723 725 728 733 736 742 748 753 760 767 777
807 803 799 796 795 793 792 789 787 784 783 780 776 772 766 761 757 752 745 739 737 734 731 728 724 720 718 716 715 715 718 720 722 727 730 732 738 743 748 754 761 769 777
809 806 803 800 797 796 793 793 792 791 789 785 780 776 772 766 760 753 745 739 736 732 730 728 724 721 719 717 715 717 718 719 722 726 730 735 739 744 749 755 761 768 773
810 808 806 804 802 801 800 799 797 796 795 790 787 783 777 771 765 759 752 744 739 735 731 729 727 725 722 721 720 721 722 723 725 729 732 737 742 746 752 757 762 768 773
812 809 808 806 804 803 802 801 801 800 798 794 791 785 780 777 769 761 755 748 743 738 733 730 730 730 728 726 725 725 726 727 730 732 735 738 742 747 753 759 764 769 775
814 812 811 810 810 808 805 802 799 797 795 792 788 785 781 777 770 762 757 751 746 742 739 737 734 733 732 731 730 730 731 730 732 736 739 742 746 751 755 761 768 773 779
815 814 812 811 810 808 806 805 802 800 798 793 789 785 781 776 770 765 759 752 747 745 746 746 743 739 737 736 735 734 734 735 736 737 742 744 750 754 759 764 769 773 780
814 814 813 813 811 810 808 807 804 802 800 795 790 786 783 779 774 770 766 762 759 755 752 750 748 745 742 741 739 738 738 738 741 740 745 747 753 758 762 767 771 776 781
816 816 815 814 813 811 810 809 806 805 803 800 797 793 789 784 777 774 773 771 769 765 761 757 754 752 750 749 747 746 743 745 747 748 750 753 757 762 766 770 774 779 785
816 815 815 814 813 812 811 811 810 808 805 802 800 797 793 790 788 783 779 776 775 772 769 765 761 759 757 755 755 753 751 751 754 755 758 759 763 768 771 775 779 784 788
816 816 815 814 813 813 811 811 810 808 807 805 802 799 796 793 791 789 789 784 781 778 775 773 770 766 765 763 761 761 759 759 760 762 764 767 771 773 777 780 783 788 792
815 814 814 813 813 812 812 811 810 810 808 806 804 801 799 795 793 791 789 789 785 785 782 778 775 773 773 771 770 769 768 768 768 770 772 774 775 777 781 787 789 792 795
812 813 812 812 811 811 811 810 810 809 809 808 805 803 802 799 796 793 792 791 793 791 786 785 783 780 779 778 778 776 776 775 776 776 777 778 781 785 788 790 791 796 799
810 810 810 810 809 809 809 809 808 808 807 807 807 804 803 800 797 795 796 793 793 794 791 788 788 787 784 784 784 784 783 782 782 783 784 785 786 788 791 794 797 800 800
806 806 808 808 808 807 806 806 805 805 805 805 805 803 802 800 799 798 795 796 794 795 795 792 790 790 790 789 788 788 788 788 788 788 789 790 791 793 796 797 798 800 802